Terre Haute, IN

9:20 PM EST on November 14, 2019 (GMT -0500)
Terre Haute International-Hulman

Weather History for KHUF - October, 2019

Change the Weather History Date:

Wednesday, October 23, 2019

  Actual Average Record
Temperature  
Mean Temperature 53 °F 52 °F  
Max Temperature 67 °F 63 °F 87 °F (1963)
Min Temperature 38 °F 41 °F 25 °F (1969)
Degree Days  
Heating Degree Days 12 13  
Month to date heating degree days 197 232  
Since 1 July heating degree days 199 310  
Cooling Degree Days 0 0  
Month to date cooling degree days 34 12  
Year to date cooling degree days 1298 990  
Growing Degree Days 2 (Base 50)    
Moisture  
Dew Point 35 °F    
Average Humidity 56    
Maximum Humidity 79    
Minimum Humidity 32    
Precipitation  
Precipitation 0.00 in 0.13 in 1.38 in (2001)
Month to date precipitation 2.70 2.69  
Year to date precipitation 40.63 37.39  
Sea Level Pressure  
Sea Level Pressure 30.04 in    
Wind  
Wind Speed 12 mph (SSW)    
Max Wind Speed 24 mph    
Max Gust Speed 33 mph    
Visibility 10 miles    
Events Rain    
T = Trace of Precipitation, MM = Missing Value Source: NWS Daily Summary

Daily Weather History Graph

Daily Weather History Graph

Search for Another Location

Airport or City:

Astronomy

Oct. 23, 2019 Rise Set
Actual Time 8:07 AM EDT 6:59 PM EDT
Civil Twilight 7:39 AM EDT 7:26 PM EDT
Nautical Twilight 7:08 AM EDT 7:57 PM EDT
Astronomical Twilight 6:37 AM EDT 8:29 PM EDT
Moon 2:27 AM EDT (10/23) 4:47 PM EDT (10/23)
Length of Visible Light 11h 46m
Length of Day
10h 51m
Waning Crescent, 27% of the Moon is Illuminated
Oct 23
Waning Crescent
Oct 27
New
Nov 4
First Quarter
Nov 12
Full
Nov 19
Last Quarter

Hourly Weather History & Observations

Time (EDT) Temp. Windchill Dew Point Humidity Pressure Visibility Wind Dir Wind Speed Gust Speed Precip Events Conditions
12:53 AM 43.0 °F 39.5 °F 34.0 °F 71% 29.97 in 10.0 mi WSW 5.8 mph - N/A   Clear
1:53 AM 39.9 °F 35.8 °F 34.0 °F 79% 29.98 in 10.0 mi WSW 5.8 mph - N/A   Clear
2:53 AM 39.9 °F 35.8 °F 33.1 °F 77% 29.99 in 10.0 mi WSW 5.8 mph - N/A   Clear
3:53 AM 39.9 °F 35.8 °F 33.1 °F 77% 30.00 in 10.0 mi WSW 5.8 mph - N/A   Clear
4:53 AM 41.0 °F 36.4 °F 32.0 °F 70% 30.01 in 10.0 mi SW 6.9 mph - N/A   Clear
5:53 AM 39.0 °F 35.7 °F 32.0 °F 76% 30.02 in 10.0 mi SSW 4.6 mph - N/A   Clear
6:53 AM 39.9 °F 36.7 °F 33.1 °F 77% 30.04 in 10.0 mi SSW 4.6 mph - N/A   Clear
7:53 AM 39.0 °F 35.7 °F 32.0 °F 76% 30.05 in 10.0 mi SSW 4.6 mph - N/A   Clear
8:53 AM 39.9 °F - 34.0 °F 79% 30.07 in 10.0 mi Calm Calm - N/A   Clear
9:53 AM 48.0 °F - 34.0 °F 58% 30.09 in 10.0 mi SSW 12.7 mph - N/A   Overcast
10:53 AM 54.0 °F - 35.1 °F 49% 30.09 in 10.0 mi SSW 13.8 mph - N/A   Clear
11:53 AM 59.0 °F - 36.0 °F 42% 30.09 in 10.0 mi SSW 17.3 mph 24.2 mph N/A   Clear
12:53 PM 63.0 °F - 36.0 °F 37% 30.08 in 10.0 mi SW 17.3 mph 27.6 mph 0.00 in Rain Light Rain
1:53 PM 64.9 °F - 36.0 °F 34% 30.06 in 10.0 mi SSW 16.1 mph 26.5 mph 0.00 in   Clear
2:53 PM 66.0 °F - 35.1 °F 32% 30.03 in 10.0 mi SW 17.3 mph 27.6 mph N/A   Clear
3:53 PM 66.0 °F - 36.0 °F 33% 30.02 in 10.0 mi South 20.7 mph 28.8 mph N/A   Clear
4:53 PM 66.0 °F - 36.0 °F 33% 30.02 in 10.0 mi SSW 21.9 mph 29.9 mph N/A   Clear
5:53 PM 64.9 °F - 37.0 °F 36% 30.01 in 10.0 mi South 15.0 mph 27.6 mph N/A   Clear
6:53 PM 61.0 °F - 37.0 °F 41% 30.03 in 10.0 mi South 12.7 mph - N/A   Clear
7:53 PM 59.0 °F - 37.0 °F 44% 30.03 in 10.0 mi South 11.5 mph - N/A   Clear
8:53 PM 59.0 °F - 37.0 °F 44% 30.04 in 10.0 mi South 11.5 mph 21.9 mph N/A   Clear
9:53 PM 59.0 °F - 37.0 °F 44% 30.06 in 10.0 mi SSW 13.8 mph 23.0 mph N/A   Clear
10:53 PM 57.9 °F - 37.9 °F 47% 30.07 in 10.0 mi South 13.8 mph 23.0 mph N/A   Clear
11:53 PM 57.0 °F - 37.9 °F 49% 30.08 in 10.0 mi South 11.5 mph - N/A   Clear